Location: Chmeln�
(49.6483°N, 14.9871°E)
Time: 06:42:06
(UTC+00:00)

Lacrosse 5 rocket - Pass Details

Date: 18 January 2021
Orbit: 465 x 630 km, 57.0° (Epoch: 06 March)

Event Time Altitude Azimuth Distance (km) Brightness Sun altitude
Exits shadow 05:28:20 19° 306° (NW) 1,277 2.6 -12.7°
Maximum altitude 05:31:05 82° 33° (NNE) 513 1.1 -12.3°
Drops below altitude 10° 05:34:49 10° 121° (ESE) 1,669 5.2 -11.7°
Sets 05:36:56 0° 122° (ESE) 2,527 6.5 -11.4°
